Location: Unspecified
(48.1170°N, 0.0000°E)
Time: 07:44:23
(UTC+00:00)

CUTE 1.7 + AOD 2 - Visible Passes

Search period start: 22 August 2019 00:00
Search period end: 01 September 2019 00:00
Orbit: 593 x 613 km, 97.6° (Epoch: 21 August)

Date Brightness Start Highest point End Pass type
(mag) Time Alt. Az. Time Alt. Az. Time Alt. Az.
22 Aug ? 04:25:06 10° ENE 04:26:38 12° E 04:28:10 10° ESE visible
30 Aug ? 04:25:32 10° ENE 04:27:19 12° E 04:29:06 10° ESE visible
31 Aug ? 04:36:48 10° NE 04:39:31 16° E 04:42:13 10° SE visible
